Date,TemperatureHighF,TemperatureAvgF,TemperatureLowF,DewpointHighF,DewpointAvgF,DewpointLowF,HumidityHigh,HumidityAvg,HumidityLow,PressureMaxIn,PressureMinIn,WindSpeedMaxMPH,WindSpeedAvgMPH,GustSpeedMaxMPH,PrecipitationSumIn
2013-1-1,61.3,60.7,59.9,60.7,60.0,59.3,98,98,98,29.73,29.72,9,7,0,0.86
2013-1-9,66.6,65.9,65.1,66.0,65.3,64.5,98,98,98,29.83,29.79,12,7,0,4.00
2013-1-10,67.8,66.4,65.7,67.2,65.8,65.1,98,98,98,29.79,29.68,24,11,0,2.50
2013-1-14,43.0,42.0,39.2,42.5,41.5,38.7,98,98,98,29.91,29.85,17,8,0,2.17
2013-1-30,54.9,49.8,46.0,-44.0,-47.1,-49.4,1,1,1,29.80,29.43,14,6,0,0.42
2013-2-5,73.4,64.1,55.6,55.9,-33.1,-43.5,98,6,1,29.75,29.66,6,2,0,0.06
2013-2-6,68.5,60.0,54.3,60.7,-37.3,-44.3,98,4,1,29.82,29.64,14,5,0,0.50
2013-2-7,75.9,62.8,58.1,58.8,-35.4,-42.0,98,4,1,29.69,29.57,13,3,0,0.15
2013-2-8,66.6,58.7,49.8,61.8,-26.3,-47.1,98,15,1,29.88,29.68,16,6,0,0.00
2013-2-9,68.7,58.9,51.4,-35.6,-41.5,-46.1,1,1,1,29.90,29.69,14,6,0,0.00
2013-2-10,78.4,66.8,61.7,65.1,-34.0,-39.8,97,2,1,29.70,29.52,19,6,0,0.25
2013-2-11,63.1,56.3,51.3,62.0,-37.4,-46.2,98,5,1,29.87,29.66,14,7,0,3.67
2013-2-12,68.9,58.6,53.4,68.3,10.7,-44.1,98,50,1,29.76,29.42,11,6,0,0.18
2013-2-13,59.5,51.4,41.0,52.8,6.0,-50.1,98,53,1,29.79,29.61,14,6,0,0.01
2013-2-14,64.2,49.4,36.5,50.6,-14.8,-52.6,98,35,1,29.88,29.78,8,2,0,0.00
2013-2-15,67.8,52.2,36.7,36.4,-44.2,-55.1,98,2,1,29.94,29.81,11,4,0,0.00
2013-2-16,55.4,46.0,34.9,-43.7,-49.4,-56.3,1,1,1,30.09,29.94,15,6,0,0.00
2013-2-17,66.2,49.4,31.6,-37.1,-47.3,-58.3,1,1,1,30.03,29.89,13,5,0,0.00
2013-2-18,70.9,60.6,48.7,43.9,-39.1,-47.7,50,2,1,29.89,29.61,22,8,0,1.01
2013-2-19,65.1,55.5,46.2,-37.8,-43.6,-49.3,1,1,1,29.98,29.67,15,7,0,0.04
2013-2-20,61.7,52.5,43.5,-39.8,-45.5,-50.9,1,1,1,29.96,29.69,16,8,0,0.00
2013-2-21,72.9,62.9,53.1,67.2,-37.0,-45.1,86,2,1,29.68,29.38,21,8,0,0.39
2013-2-22,67.8,60.2,55.2,44.8,-39.9,-43.8,49,2,1,29.69,29.57,12,6,0,0.02
2013-2-23,66.6,55.6,48.0,-36.9,-43.5,-48.2,1,1,1,29.70,29.60,11,6,0,0.00
2013-2-24,73.2,58.1,41.4,59.3,-40.9,-52.2,98,2,1,29.71,29.40,10,4,0,0.14
2013-2-25,70.9,63.2,50.7,67.1,-33.7,-46.5,97,5,1,29.41,29.10,15,6,0,0.32
2013-2-26,63.1,52.3,43.5,-39.0,-45.5,-50.9,1,1,1,29.66,29.32,17,7,0,0.00
2013-2-27,71.6,55.2,39.4,40.1,-42.3,-53.5,98,2,1,29.82,29.65,14,4,0,0.00
2013-2-28,55.6,46.4,39.7,-43.5,-49.1,-53.3,1,1,1,29.95,29.81,11,5,0,0.00
2013-3-1,61.5,47.3,33.8,-39.9,-48.6,-56.9,1,1,1,29.94,29.84,15,4,0,0.00
2013-3-2,49.5,40.4,31.3,-47.3,-52.9,-58.5,1,1,1,29.99,29.88,19,6,0,0.00
2013-3-3,63.0,45.3,26.6,-39.0,-49.8,-61.4,1,1,1,30.02,29.80,12,3,0,0.00
2013-3-4,74.3,60.2,43.0,47.6,-39.4,-51.2,93,2,1,29.80,29.58,26,8,0,0.00
2013-3-5,72.3,63.7,51.3,26.1,-37.9,-46.2,25,1,1,29.97,29.57,18,8,0,0.00
2013-3-6,65.8,51.1,39.6,-37.3,-46.3,-53.3,1,1,1,30.11,29.95,11,4,0,0.00
2013-3-7,72.7,52.6,33.4,-33.2,-45.4,-57.2,1,1,1,30.06,29.94,10,2,0,0.00
2013-3-8,79.0,57.4,37.2,-29.4,-42.5,-54.8,1,1,1,30.02,29.83,8,2,0,0.00
2013-3-9,72.9,63.2,52.9,-33.1,-38.9,-45.2,1,1,1,29.83,29.62,12,6,0,0.00
2013-3-10,76.6,64.1,53.2,65.1,-30.1,-45.0,98,8,1,29.68,29.52,21,6,0,1.32
2013-3-11,60.3,51.1,43.5,-40.7,-46.3,-50.9,1,1,1,29.79,29.65,14,6,0,0.08
2013-3-12,68.9,52.5,36.9,39.2,-42.9,-55.0,98,3,1,29.98,29.79,10,2,0,0.00
2013-3-13,68.4,53.7,40.3,6.3,-43.5,-52.9,22,1,1,30.17,29.98,16,4,0,0.00
2013-3-14,77.4,55.9,36.0,-30.4,-43.4,-55.6,1,1,1,30.19,30.01,9,3,0,0.00
2013-3-15,76.3,60.0,41.5,-10.6,-40.5,-52.2,10,1,1,30.03,29.81,18,4,0,0.00
2013-3-16,79.3,65.4,51.6,58.8,-32.5,-46.0,98,5,1,29.80,29.60,15,6,0,0.00
2013-3-17,79.5,68.1,58.1,55.9,-34.2,-41.9,90,2,1,29.64,29.45,17,6,0,0.00
2013-3-18,85.6,74.7,67.1,68.5,-27.0,-36.6,98,4,1,29.65,29.40,14,7,0,0.00
2013-3-19,80.2,66.1,50.9,-28.7,-37.2,-46.4,1,1,1,29.74,29.63,13,7,0,0.00
2013-3-20,72.0,59.6,45.5,-33.6,-41.1,-49.7,1,1,1,29.90,29.72,17,6,0,0.06
2013-3-21,70.9,56.5,44.4,-34.3,-43.0,-50.4,1,1,1,29.78,29.52,12,4,0,0.00
2013-3-22,82.6,68.2,56.7,31.8,-35.2,-42.9,25,1,1,29.58,29.41,11,5,0,0.00
2013-3-23,74.1,70.0,65.5,69.4,-21.5,-37.5,98,11,1,29.49,29.27,11,4,0,0.12
2013-3-24,65.3,58.4,45.1,-37.6,-41.8,-50.0,1,1,1,29.80,29.33,20,8,0,0.00
2013-3-25,62.4,48.2,36.3,-39.4,-48.1,-55.4,1,1,1,30.03,29.81,17,8,0,0.00
2013-3-26,58.5,46.1,30.9,-41.8,-49.3,-58.8,1,1,1,30.16,30.03,15,4,0,0.00
2013-3-27,70.7,50.4,31.3,-34.4,-46.7,-58.5,1,1,1,30.16,29.97,8,2,0,0.00
2013-3-28,78.4,57.1,36.9,-29.8,-42.7,-55.0,1,1,1,30.07,29.93,7,2,0,0.00
2013-3-29,80.4,63.6,46.4,31.1,-37.5,-49.2,49,2,1,30.02,29.85,11,4,0,0.00
2013-3-30,78.4,64.7,54.7,37.8,-36.7,-44.1,49,2,1,29.89,29.69,12,4,0,0.00
2013-3-31,79.0,65.0,58.1,66.7,-11.2,-42.0,98,24,1,29.71,29.56,14,5,0,0.26
2013-4-1,81.3,66.0,55.4,-14.8,-37.0,-43.7,4,1,1,29.81,29.66,8,2,0,0.01
2013-4-2,82.9,65.8,52.2,51.7,-32.8,-45.6,98,3,1,29.80,29.61,11,3,0,0.00
2013-4-3,67.3,54.8,49.3,57.2,-39.9,-47.4,96,4,1,29.77,29.52,19,9,0,2.00
2013-4-4,55.0,49.5,46.9,47.9,-42.3,-48.8,98,5,1,29.84,29.70,16,6,0,0.01
2013-4-5,71.4,56.2,43.9,-19.2,-42.8,-50.7,5,1,1,29.94,29.79,12,5,0,0.00
2013-4-6,76.3,60.4,44.4,35.4,-36.5,-50.4,50,4,1,29.87,29.72,14,3,0,0.00
2013-4-7,80.2,67.7,55.0,8.6,-34.9,-43.9,13,1,1,29.77,29.61,10,4,0,0.00
2013-4-8,84.4,71.8,62.2,9.0,-32.3,-39.5,12,1,1,29.65,29.54,14,6,0,0.00
2013-4-9,83.3,74.6,66.4,69.2,-26.4,-37.0,98,5,1,29.62,29.46,18,7,0,0.00
2013-4-10,84.7,77.0,71.6,71.5,-26.0,-33.7,98,5,1,29.57,29.43,18,8,0,0.00
2013-4-11,74.8,58.6,49.5,73.2,-33.2,-47.3,98,8,1,29.57,29.37,11,5,0,1.22
2013-4-12,78.1,60.6,45.0,53.7,-34.3,-50.0,98,6,1,29.74,29.57,9,2,0,0.00
2013-4-13,82.6,67.1,50.7,51.8,-30.2,-46.5,98,6,1,29.75,29.53,16,4,0,0.00
2013-4-14,81.9,68.6,57.2,66.5,-3.1,-42.6,98,30,1,29.54,29.40,22,5,0,1.08
2013-4-15,89.1,76.3,65.3,70.1,-3.8,-36.6,98,25,1,29.59,29.48,10,4,0,0.00
2013-4-16,86.2,78.2,75.4,75.5,8.3,-31.6,98,35,1,29.70,29.58,10,4,0,0.02
2013-4-17,88.2,79.9,72.9,71.1,-25.3,-33.1,87,3,1,29.70,29.54,14,6,0,0.00
2013-4-18,84.7,73.7,52.3,55.7,-29.4,-45.5,98,4,1,29.66,29.39,20,8,0,0.50
2013-4-19,64.2,53.3,45.0,32.9,-44.1,-50.0,48,1,1,29.94,29.66,18,8,0,0.00
2013-4-20,76.5,57.5,40.1,40.5,-40.1,-53.0,98,3,1,30.00,29.81,11,3,0,0.00
2013-4-21,79.0,61.1,45.3,27.9,-38.6,-49.8,49,2,1,29.95,29.79,10,3,0,0.00
2013-4-22,83.5,66.4,49.3,48.8,-29.4,-47.4,98,7,1,29.86,29.65,11,3,0,0.00
2013-4-23,87.1,73.6,62.2,70.9,-20.4,-39.5,98,12,1,29.74,29.60,11,4,0,0.00
2013-4-24,71.8,62.0,53.6,70.3,-34.2,-44.7,98,4,1,29.94,29.61,16,8,0,2.30
2013-4-25,73.2,61.0,52.2,-32.9,-40.3,-45.6,1,1,1,30.06,29.91,12,6,0,0.00
2013-4-26,84.6,68.5,53.8,-26.1,-35.8,-44.6,1,1,1,29.97,29.83,10,3,0,0.00
2013-4-27,85.5,74.3,69.3,70.6,-17.5,-35.2,98,13,1,29.84,29.68,13,3,0,0.00
2013-4-28,76.3,70.6,64.2,69.0,-29.8,-38.3,98,4,1,29.71,29.59,7,3,0,0.02
2013-4-29,90.7,74.2,62.4,65.2,-29.2,-39.4,98,3,1,29.67,29.53,10,2,0,0.00
2013-4-30,77.5,70.0,64.0,70.3,-19.1,-38.2,98,13,1,29.58,29.48,9,4,0,0.00
2013-5-1,91.9,74.4,65.7,66.9,-25.2,-37.4,98,7,1,29.59,29.48,10,4,0,1.03
2013-5-2,76.3,69.2,62.4,-11.1,-34.6,-37.3,4,1,1,29.67,29.55,12,5,0,0.02
2013-5-3,61.2,53.4,45.7,60.2,-41.7,-49.6,98,4,1,29.78,29.66,19,8,0,0.08
2013-5-4,75.7,60.1,42.8,42.7,-35.8,-51.4,98,5,1,29.77,29.54,17,4,0,0.00
2013-5-5,68.7,57.5,48.0,-35.6,-42.4,-48.2,1,1,1,29.77,29.63,15,5,0,0.00
2013-5-6,82.6,63.3,45.5,46.7,-34.5,-49.7,98,5,1,29.80,29.62,10,3,0,0.00
2013-5-7,91.2,72.8,56.3,57.0,-29.8,-43.1,98,4,1,29.77,29.65,8,2,0,0.00
2013-5-8,88.7,72.9,57.4,58.2,-25.4,-42.4,98,7,1,29.79,29.70,11,2,0,0.00
2013-5-9,84.2,73.0,61.9,65.1,-30.1,-39.7,98,3,1,29.76,29.63,12,3,0,0.00
2013-5-10,77.2,69.8,65.3,67.6,-17.7,-37.6,98,13,1,29.72,29.47,15,5,0,3.01
2013-5-11,86.4,73.7,64.8,68.8,-24.2,-37.9,98,7,1,29.79,29.57,9,2,0,0.36
2013-5-12,82.0,69.3,57.6,57.2,-32.7,-42.3,74,2,1,29.90,29.78,13,4,0,0.00
2013-5-13,89.6,68.3,51.3,50.8,-31.7,-46.2,97,4,1,30.01,29.89,9,2,0,0.00
2013-5-14,89.1,72.4,55.9,54.8,-24.3,-43.3,87,6,1,29.98,29.81,11,3,0,0.00
2013-5-15,86.7,71.6,59.4,-24.9,-33.9,-41.2,1,1,1,29.89,29.69,10,3,0,0.00
2013-5-16,86.7,74.6,65.3,65.8,-23.3,-37.6,98,9,1,29.71,29.54,12,4,0,0.00
2013-5-17,90.7,78.1,67.8,69.0,-27.7,-36.1,98,3,1,29.69,29.58,12,4,0,0.00
2013-5-18,91.2,80.6,73.2,72.3,-22.0,-32.9,97,5,1,29.72,29.63,11,5,0,0.00
2013-5-19,91.6,81.0,73.2,74.3,-27.1,-32.9,92,2,1,29.66,29.59,14,5,0,0.00
2013-5-20,92.8,82.4,75.9,-21.3,-27.4,-31.3,1,1,1,29.65,29.56,13,5,0,0.00
2013-5-21,93.2,82.2,74.5,75.5,-24.3,-32.1,98,3,1,29.61,29.48,16,5,0,0.00
2013-5-22,86.5,76.9,68.9,54.7,-26.9,-35.5,52,2,1,29.64,29.43,15,4,0,1.79
2013-5-23,94.1,79.3,67.5,69.7,-24.1,-36.3,98,4,1,29.76,29.64,9,3,0,0.24
2013-5-24,94.3,79.3,66.9,16.7,-28.4,-36.7,11,1,1,29.84,29.73,9,3,0,0.04
2013-5-25,93.9,79.2,70.5,71.8,-24.1,-34.5,94,4,1,29.90,29.81,11,4,0,0.00
2013-5-26,90.7,79.2,70.5,71.5,-26.0,-34.5,98,4,1,29.87,29.77,8,3,0,0.00
2013-5-27,93.6,80.7,70.3,70.3,-26.6,-34.6,98,2,1,29.83,29.69,11,4,0,0.00
2013-5-28,93.0,80.7,70.9,71.7,-19.9,-34.3,98,8,1,29.75,29.65,12,4,0,0.00
2013-5-29,93.4,80.4,68.2,62.5,-26.7,-35.9,79,2,1,29.67,29.57,10,4,0,0.00
2013-5-30,93.2,81.9,73.8,58.2,-25.9,-32.5,50,2,1,29.65,29.57,12,5,0,0.00
2013-5-31,94.6,82.7,75.0,74.8,-24.0,-31.8,98,4,1,29.65,29.58,11,4,0,0.00
2013-6-1,97.3,84.1,75.7,76.8,-21.9,-31.4,98,5,1,29.65,29.57,9,4,0,0.00
2013-6-2,91.4,78.8,71.8,75.2,-19.4,-33.7,98,9,1,29.68,29.57,12,2,0,0.24
2013-6-3,93.0,80.3,71.6,39.5,-26.0,-33.9,27,2,1,29.63,29.54,11,3,0,0.00
2013-6-4,103.5,85.9,71.4,-15.0,-25.4,-34.0,1,1,1,29.61,29.53,6,2,0,0.00
2013-6-5,100.9,86.2,74.3,75.7,-15.5,-31.7,98,9,1,29.59,29.47,7,2,0,0.00
2013-6-6,91.9,81.6,74.8,79.2,-21.7,-31.9,95,5,1,29.53,29.46,12,3,0,0.00
2013-6-8,91.6,72.5,70.2,67.5,-18.6,-34.7,87,12,1,29.67,29.58,15,3,0,0.24
2013-6-9,95.9,78.0,69.6,-9.8,-29.8,-35.1,3,1,1,29.65,29.58,17,3,0,0.39
2013-6-10,96.4,83.0,70.3,75.8,-25.0,-34.6,92,2,1,29.70,29.64,7,2,0,0.01
2013-6-11,101.1,86.7,75.2,76.5,-17.7,-31.7,98,7,1,29.76,29.67,8,2,0,0.00
2013-6-12,99.5,86.3,74.5,76.0,-16.5,-32.1,98,8,1,29.78,29.68,9,2,0,0.00
2013-6-13,99.0,86.0,75.2,78.4,-22.2,-31.7,98,3,1,29.74,29.59,10,2,0,0.00
2013-6-14,100.4,86.5,77.4,78.6,-21.7,-30.4,98,4,1,29.63,29.56,10,4,0,0.00
2013-6-15,102.0,85.3,71.8,-15.9,-25.7,-33.7,1,1,1,29.69,29.61,7,2,0,0.00
2013-6-16,97.5,85.8,77.4,78.7,-23.1,-30.4,98,2,1,29.72,29.61,9,3,0,0.00
2013-6-17,94.5,84.1,73.4,73.2,-21.9,-32.8,98,3,1,29.70,29.60,11,3,0,0.00
2013-6-18,98.6,83.2,72.1,76.4,-24.1,-33.6,98,3,1,29.68,29.58,10,4,0,0.23
2013-6-19,90.3,78.4,73.2,75.5,-20.9,-32.9,98,7,1,29.72,29.62,7,2,0,0.12
2013-6-20,100.0,82.3,73.9,67.7,-24.0,-32.5,74,3,1,29.82,29.70,13,2,0,0.25
2013-6-21,102.6,84.7,72.5,-15.5,-26.1,-33.3,1,1,1,29.80,29.73,6,2,0,0.00
2013-6-22,100.6,85.4,72.0,-12.1,-25.1,-33.6,3,1,1,29.79,29.67,8,2,0,0.00
2013-6-23,100.8,84.0,72.0,73.0,-22.4,-33.6,98,3,1,29.75,29.68,7,2,0,0.00
2013-6-24,100.6,85.2,75.0,38.8,-24.5,-31.8,25,1,1,29.79,29.72,12,3,0,0.00
2013-6-25,99.7,84.6,72.7,73.5,-20.9,-33.2,98,5,1,29.76,29.67,9,2,0,0.00
2013-6-26,101.8,86.4,73.9,75.5,-15.7,-32.5,98,8,1,29.72,29.63,9,2,0,0.00
2013-6-27,100.6,85.7,73.0,76.4,-12.0,-32.7,98,11,1,29.70,29.60,10,3,0,0.00
2013-6-28,99.9,86.3,77.2,77.7,-22.6,-30.5,98,3,1,29.63,29.46,14,5,0,0.00
2013-6-29,102.7,85.9,76.5,80.0,-12.6,-30.9,98,11,1,29.49,29.38,10,4,0,0.00
2013-6-30,97.0,83.8,71.4,75.5,-19.9,-33.9,98,6,1,29.50,29.41,10,3,0,0.00
2013-7-1,93.7,80.3,66.0,40.8,-26.8,-37.2,38,2,1,29.62,29.49,10,3,0,0.00
2013-7-2,94.3,79.4,65.7,54.4,-27.1,-37.3,67,2,1,29.70,29.61,7,1,0,0.00
2013-7-3,93.4,80.3,67.8,-20.9,-28.7,-36.1,1,1,1,29.73,29.65,12,3,0,0.00
2013-7-4,95.0,80.2,68.4,69.0,-20.1,-35.8,98,9,1,29.70,29.62,9,3,0,0.00
2013-7-5,96.6,80.2,69.6,68.8,-25.0,-34.9,96,3,1,29.71,29.64,9,2,0,0.00
2013-7-6,91.9,77.2,69.6,71.0,-21.3,-35.1,98,8,1,29.71,29.63,9,3,0,0.00
2013-7-7,95.9,81.1,75.2,75.7,-16.1,-31.7,98,11,1,29.78,29.65,13,3,0,0.00
2013-7-8,100.8,84.0,71.8,73.3,-6.2,-32.5,98,18,1,29.86,29.75,10,2,0,0.00
2013-7-9,102.9,85.1,73.4,69.1,-20.6,-32.8,73,4,1,29.89,29.76,10,2,0,0.00
2013-7-10,98.6,86.1,73.9,77.5,-9.6,-32.4,98,14,1,29.81,29.66,9,3,0,0.00
2013-7-11,97.3,82.4,73.0,76.8,-22.4,-33.0,98,5,1,29.71,29.61,14,4,0,1.11
2013-7-12,102.2,84.8,73.6,-15.8,-26.0,-32.7,1,1,1,29.67,29.56,8,2,0,0.00
2013-7-13,99.3,82.4,67.8,-17.5,-27.4,-36.1,1,1,1,29.67,29.58,7,2,0,0.00
2013-7-14,96.6,79.7,70.0,69.6,-27.4,-34.8,98,2,1,29.68,29.58,8,2,0,0.00
2013-7-15,91.8,77.4,72.5,75.6,-18.6,-33.3,98,11,1,29.82,29.65,9,4,0,0.20
2013-7-16,91.6,80.5,73.4,75.9,-15.2,-32.8,98,12,1,29.87,29.76,12,4,0,0.00
2013-7-17,96.3,83.1,74.8,74.8,-21.7,-31.9,98,5,1,29.94,29.82,9,4,0,0.00
2013-7-18,94.3,81.4,71.8,72.6,-19.1,-33.7,98,6,1,29.86,29.71,12,3,0,0.00
2013-7-19,99.1,82.2,70.5,71.2,-24.1,-34.5,98,4,1,29.77,29.64,6,2,0,0.00
2013-7-20,102.2,82.5,71.6,74.8,-15.4,-33.9,98,10,1,29.70,29.59,6,2,0,0.28
2013-7-21,90.5,81.4,73.4,69.8,-24.3,-32.5,87,3,1,29.73,29.65,14,4,0,0.15
2013-7-22,95.7,84.6,75.4,59.9,-23.4,-31.6,50,2,1,29.75,29.67,10,4,0,0.04
2013-7-23,96.6,88.7,78.4,39.7,-22.4,-29.7,25,1,1,29.77,29.61,10,6,0,0.00
2013-7-24,96.1,84.3,76.8,58.2,-23.9,-30.7,49,2,1,29.71,29.58,12,5,0,0.02
2013-7-25,99.7,85.2,76.5,75.9,-24.6,-30.9,92,2,1,29.75,29.64,10,2,0,0.00
2013-7-26,102.7,86.0,73.4,73.2,-14.4,-32.5,98,10,1,29.78,29.64,8,2,0,0.00
2013-7-27,89.8,81.3,75.7,77.7,-18.2,-31.2,98,9,1,29.65,29.56,10,3,0,0.56
2013-7-28,101.7,85.1,73.0,73.7,-21.5,-33.0,98,5,1,29.69,29.60,5,2,0,0.00
2013-7-29,104.2,88.9,75.7,75.3,-21.4,-31.4,98,2,1,29.81,29.68,6,1,0,0.00
2013-7-30,102.2,86.4,73.2,74.1,-21.8,-32.9,98,3,1,29.86,29.75,8,2,0,0.00
2013-7-31,103.6,86.0,73.4,72.8,-22.6,-32.7,98,3,1,29.81,29.65,11,3,0,0.00
2013-8-1,103.3,86.1,75.7,75.9,-16.0,-31.4,98,8,1,29.73,29.60,8,3,0,0.00
2013-8-2,106.9,89.1,77.2,76.5,-17.9,-30.5,92,5,1,29.71,29.61,8,2,0,0.00
2013-8-3,106.3,88.2,76.6,76.6,-21.9,-30.9,98,3,1,29.78,29.69,8,2,0,0.00
2013-8-4,107.2,85.0,75.0,76.0,-22.9,-31.8,98,3,1,29.81,29.68,16,2,0,1.86
2013-8-5,103.1,86.5,76.3,76.3,-22.8,-31.0,88,2,1,29.77,29.63,9,3,0,0.00
2013-8-6,103.6,87.8,76.1,77.1,-18.8,-31.2,98,6,1,29.71,29.58,10,3,0,0.00
2013-8-7,105.1,88.2,76.5,76.0,-22.0,-30.9,96,2,1,29.70,29.57,7,2,0,0.00
2013-8-8,104.0,87.2,74.5,73.3,-20.5,-32.1,96,4,1,29.68,29.56,6,2,0,0.00
2013-8-9,107.2,87.5,76.1,75.5,-21.7,-31.0,98,3,1,29.71,29.60,10,2,0,0.00
2013-8-10,103.3,84.7,77.0,77.9,-23.7,-30.6,92,3,1,29.78,29.69,9,2,0,0.37
2013-8-11,100.2,83.6,74.1,77.3,-8.1,-32.4,98,15,1,29.81,29.73,9,3,0,0.00
2013-8-12,99.0,83.9,75.4,64.9,-24.0,-31.6,63,2,1,29.80,29.70,8,2,0,0.00
2013-8-13,99.3,84.7,74.7,77.3,-20.9,-32.0,98,5,1,29.75,29.59,14,4,0,0.01
2013-8-14,88.0,78.1,74.1,75.5,-23.7,-32.4,98,6,1,29.70,29.63,8,2,0,0.14
2013-8-15,94.6,78.7,68.7,6.6,-29.2,-35.6,7,1,1,29.71,29.62,8,3,0,0.00
2013-8-16,94.3,80.5,69.8,60.4,-27.4,-34.9,71,2,1,29.70,29.63,8,3,0,0.00
2013-8-17,92.3,79.2,66.7,-21.6,-29.3,-36.8,1,1,1,29.70,29.62,13,5,0,0.00
2013-8-18,93.0,79.4,69.8,71.0,-22.0,-34.9,98,7,1,29.74,29.66,12,4,0,0.00
2013-8-19,89.4,76.4,67.5,68.8,-28.1,-36.3,98,3,1,29.76,29.68,9,3,0,0.00
2013-8-20,99.7,76.7,69.8,75.7,-14.0,-34.9,98,14,1,29.76,29.68,10,2,0,1.31
2013-8-21,96.1,81.0,73.0,75.0,-15.4,-32.9,98,12,1,29.80,29.71,9,2,0,0.06
2013-8-22,97.7,84.0,73.2,73.9,-18.4,-32.9,98,8,1,29.80,29.65,8,2,0,0.01
2013-8-23,95.9,84.5,73.2,75.5,-18.5,-32.9,98,6,1,29.71,29.60,14,3,0,0.00
2013-8-24,91.4,81.3,72.7,56.5,-26.9,-33.2,56,2,1,29.80,29.67,18,4,0,0.00
2013-8-25,90.9,79.6,72.5,53.2,-28.2,-33.3,49,2,1,29.85,29.77,15,5,0,0.00
2013-8-26,93.6,79.5,73.6,74.4,-23.3,-32.5,98,6,1,29.88,29.79,14,4,0,0.00
2013-8-27,100.4,83.0,72.3,72.8,-22.6,-33.4,98,4,1,29.84,29.72,9,2,0,0.00
2013-8-28,99.3,82.3,69.8,69.9,-24.4,-34.9,98,4,1,29.79,29.69,7,2,0,0.00
2013-8-29,101.3,82.6,68.9,-16.3,-27.3,-35.5,1,1,1,29.78,29.67,7,2,0,0.00
2013-8-30,102.7,83.9,69.3,69.6,-21.2,-35.2,98,5,1,29.74,29.62,9,2,0,0.00
2013-8-31,102.0,85.3,70.2,69.7,-22.4,-34.7,98,3,1,29.70,29.55,9,2,0,0.00
2013-9-1,104.2,85.6,72.3,67.2,-24.1,-33.4,83,2,1,29.66,29.53,9,3,0,0.00
2013-9-2,105.6,86.2,73.6,74.8,-21.9,-32.7,98,3,1,29.67,29.54,12,3,0,0.00
2013-9-3,98.2,79.8,74.1,1.3,-28.5,-32.4,5,1,1,29.67,29.58,7,2,0,0.08
2013-9-4,101.7,84.5,71.8,73.3,-23.3,-33.7,98,3,1,29.76,29.64,9,2,0,0.00
2013-9-5,99.5,83.5,72.3,74.7,-23.1,-33.3,98,3,1,29.79,29.70,8,2,0,0.00
2013-9-6,101.8,84.2,72.0,71.5,-20.5,-33.6,98,6,1,29.80,29.67,10,2,0,0.00
2013-9-7,102.7,83.3,72.0,32.4,-26.2,-33.6,22,1,1,29.76,29.64,10,2,0,0.00
2013-9-8,100.8,82.0,68.0,69.6,-19.8,-35.9,98,7,1,29.73,29.61,11,2,0,0.00
2013-9-9,97.9,81.8,66.9,62.2,-25.1,-36.7,74,3,1,29.73,29.65,13,2,0,0.00
2013-9-10,97.9,82.6,69.3,69.9,-25.5,-35.2,98,2,1,29.79,29.70,10,2,0,0.00
2013-9-11,98.2,83.4,71.4,71.5,-21.9,-33.9,98,5,1,29.80,29.70,10,3,0,0.00
2013-9-12,99.1,83.0,69.1,68.8,-24.8,-35.4,98,2,1,29.75,29.60,10,3,0,0.00
2013-9-13,102.9,83.8,70.7,-15.4,-26.7,-34.4,1,1,1,29.65,29.49,18,2,0,0.04
2013-9-14,95.9,82.2,71.8,54.2,-25.8,-33.7,51,2,1,29.67,29.57,10,4,0,0.00
2013-9-15,100.0,82.8,69.4,-17.1,-27.2,-35.2,1,1,1,29.75,29.65,13,3,0,0.00
2013-9-16,98.8,82.7,69.8,39.0,-26.5,-34.9,32,1,1,29.76,29.66,12,3,0,0.00
2013-9-17,99.1,83.8,70.5,59.8,-25.6,-34.5,62,2,1,29.77,29.64,10,3,0,0.00
2013-9-18,99.5,82.4,72.0,-17.3,-27.5,-33.6,1,1,1,29.73,29.62,10,3,0,0.00
2013-9-19,99.1,81.0,73.6,73.3,-24.4,-32.7,98,4,1,29.70,29.61,14,4,0,0.02
2013-9-20,90.0,78.9,75.2,78.2,-18.4,-31.7,98,11,1,29.67,29.47,11,2,0,2.20
2013-9-21,80.1,74.9,73.2,-28.8,-31.9,-32.9,1,1,1,29.51,29.44,10,4,0,4.83
2013-9-22,84.2,73.3,64.8,62.7,-31.4,-37.9,92,2,1,29.56,29.45,12,6,0,0.00
2013-9-23,95.4,77.9,63.3,77.8,-28.4,-38.9,98,2,1,29.53,29.45,8,3,0,0.00
2013-9-24,93.7,81.6,71.6,72.8,-23.7,-33.3,91,3,1,29.53,29.48,13,4,0,0.01
2013-9-25,95.2,79.2,65.8,73.4,-20.1,-37.3,98,8,1,29.54,29.47,10,2,0,0.00
2013-9-26,100.0,78.8,62.1,62.4,-23.4,-39.6,98,5,1,29.64,29.52,6,1,0,0.00
2013-9-27,97.7,78.6,63.9,63.4,-28.6,-38.5,98,2,1,29.71,29.62,7,1,0,0.00
2013-9-28,94.3,79.7,69.8,71.5,-21.1,-34.9,98,8,1,29.77,29.67,8,3,0,0.00
2013-9-29,85.5,75.9,71.4,73.7,-21.8,-34.0,98,9,1,29.73,29.63,6,2,0,0.28
2013-9-30,86.7,75.5,72.0,75.1,-11.9,-33.6,98,18,1,29.64,29.57,9,3,0,0.18
2013-10-1,91.4,78.4,72.3,75.6,-22.4,-33.4,98,7,1,29.71,29.62,10,3,0,0.03
2013-10-2,94.3,79.7,72.1,76.9,-16.8,-33.6,98,9,1,29.73,29.62,9,2,0,0.08
2013-10-3,95.7,80.8,72.1,74.6,-25.1,-33.6,98,4,1,29.70,29.60,8,3,0,0.06
2013-10-4,92.1,79.8,74.8,75.5,-23.5,-31.9,98,5,1,29.69,29.62,12,4,0,0.00
2013-10-5,92.5,79.2,73.0,73.3,-27.0,-33.0,98,3,1,29.68,29.57,10,3,0,0.02
2013-10-6,79.3,70.8,58.3,61.4,-32.6,-41.9,69,2,1,29.70,29.56,13,5,0,0.01
2013-10-7,79.0,64.9,53.6,-29.4,-37.9,-44.7,1,1,1,29.79,29.68,14,4,0,0.00
2013-10-8,81.0,65.3,52.5,52.4,-33.0,-45.3,98,5,1,29.79,29.66,8,2,0,0.00
2013-10-9,90.1,69.4,51.1,52.6,-34.2,-46.3,92,2,1,29.79,29.70,6,1,0,0.00
2013-10-10,85.6,68.5,56.1,67.4,-30.6,-43.2,98,5,1,29.81,29.68,7,2,0,0.00
2013-10-11,94.3,75.1,58.5,57.5,-29.6,-41.8,84,3,1,29.73,29.61,7,2,0,0.20
2013-10-12,95.5,77.4,67.5,70.8,-23.3,-36.3,98,6,1,29.80,29.65,12,2,0,1.61
2013-10-13,89.4,78.0,71.6,-23.3,-30.1,-33.9,1,1,1,29.87,29.72,7,3,0,0.01
2013-10-14,93.6,78.0,70.0,71.0,-24.8,-34.8,98,5,1,29.82,29.69,9,2,0,0.00
2013-10-15,90.1,77.9,67.6,68.5,-20.4,-35.6,98,9,1,29.73,29.61,9,2,0,0.00
2013-10-16,91.0,77.8,68.5,71.5,-18.8,-35.7,98,10,1,29.66,29.56,9,3,0,0.00
2013-10-17,70.0,64.9,56.5,64.7,-29.9,-43.0,98,7,1,29.76,29.63,10,4,0,0.00
2013-10-18,73.4,63.1,54.5,55.0,-33.7,-44.2,98,6,1,29.76,29.59,10,2,0,0.00
2013-10-19,72.0,63.8,54.3,62.1,-29.9,-44.3,98,9,1,29.77,29.63,13,5,0,0.65
2013-10-20,80.8,61.7,47.8,48.2,-38.3,-48.3,98,2,1,29.81,29.67,5,2,0,0.00
2013-10-21,71.6,59.1,52.5,-33.9,-41.4,-45.4,1,1,1,29.71,29.64,6,1,0,0.00
2013-10-22,73.0,65.8,59.7,61.8,-33.3,-41.0,98,3,1,29.72,29.66,11,4,0,0.00
2013-10-23,81.7,67.7,49.6,-27.8,-36.2,-47.2,1,1,1,29.84,29.76,9,3,0,0.00
2013-10-24,84.6,71.0,49.1,49.9,-31.7,-47.5,97,3,1,29.93,29.84,6,2,0,0.00
2013-10-25,70.5,60.0,49.1,-34.5,-40.9,-47.5,1,1,1,30.11,29.93,12,5,0,0.00
2013-10-26,82.0,58.6,43.9,-27.7,-41.8,-50.7,1,1,1,30.01,29.84,6,1,0,0.00
2013-10-27,81.0,64.3,52.2,64.2,-35.6,-45.6,98,3,1,29.83,29.69,9,2,0,0.15
2013-10-28,88.2,72.5,61.0,64.7,-28.4,-40.2,98,5,1,29.86,29.73,5,1,0,0.00
2013-10-29,87.6,73.4,63.9,64.3,-22.5,-38.3,98,9,1,29.89,29.80,9,2,0,0.00
2013-10-30,82.2,72.4,65.7,70.1,-19.7,-37.4,98,12,1,29.84,29.65,11,4,0,0.00
2013-10-31,76.5,71.1,65.3,69.7,-32.8,-37.6,98,2,1,29.65,29.48,14,5,0,2.44
2013-11-1,80.2,67.8,54.9,-28.7,-36.2,-44.0,1,1,1,29.65,29.54,7,2,0,0.01
2013-11-2,72.7,63.9,51.4,-33.2,-38.5,-46.1,1,1,1,29.91,29.64,16,6,0,0.00
2013-11-3,69.8,54.8,41.5,-34.9,-44.1,-52.2,1,1,1,29.97,29.82,9,2,0,0.00
2013-11-4,77.7,62.1,45.3,-30.2,-39.6,-49.8,1,1,1,29.91,29.79,13,4,0,0.00
2013-11-5,80.1,69.1,60.8,-28.8,-35.4,-40.4,1,1,1,29.86,29.73,14,7,0,0.00
2013-11-6,84.7,71.8,61.3,-26.1,-33.8,-40.1,1,1,1,29.86,29.72,12,4,0,0.05
2013-11-7,62.1,55.3,46.6,-39.6,-43.7,-49.0,1,1,1,30.08,29.87,17,8,0,0.01
2013-11-8,68.5,56.7,44.6,-35.7,-42.9,-50.3,1,1,1,30.08,29.91,14,4,0,0.00
2013-11-9,75.2,58.5,45.5,-31.7,-41.8,-49.7,1,1,1,29.96,29.86,7,2,0,0.00
2013-11-10,75.7,62.1,51.6,-31.4,-39.6,-46.0,1,1,1,30.00,29.90,9,3,0,0.00
2013-11-11,81.5,61.1,48.6,-27.9,-40.2,-47.8,1,1,1,29.97,29.85,6,2,0,0.00
2013-11-12,70.2,52.9,38.7,-34.7,-45.2,-53.9,1,1,1,30.27,29.91,22,8,0,0.00
2013-11-13,55.0,42.3,32.4,-43.9,-51.7,-57.8,1,1,1,30.31,30.14,14,7,0,0.00
2013-11-14,64.9,47.8,30.4,-37.9,-48.3,-59.1,1,1,1,30.14,29.81,7,2,0,0.00
2013-11-15,81.0,64.2,51.6,-28.2,-38.3,-46.0,1,1,1,29.80,29.64,8,3,0,0.00
2013-11-16,80.2,71.9,64.8,69.0,-26.3,-37.9,98,7,1,29.72,29.57,10,4,0,0.00
2013-11-17,83.5,76.1,71.2,75.0,-20.0,-34.1,98,11,1,29.65,29.54,11,4,0,0.01
2013-11-18,80.2,70.0,56.1,-28.7,-34.9,-43.2,1,1,1,29.83,29.65,10,4,0,0.00
2013-11-19,68.2,56.0,44.2,-35.9,-43.3,-50.5,1,1,1,29.89,29.75,12,4,0,0.00
2013-11-20,77.2,56.4,39.7,-30.5,-43.1,-53.3,1,1,1,29.83,29.69,7,2,0,0.00
2013-11-21,75.9,67.4,56.5,67.6,-29.4,-43.0,98,7,1,29.85,29.75,11,5,0,0.00
2013-11-22,72.3,68.5,62.8,70.1,-18.3,-39.2,98,15,1,29.94,29.82,11,4,0,0.09
2013-11-23,62.2,50.6,43.9,54.6,-36.2,-50.7,98,10,1,30.10,29.90,18,10,0,0.13
2013-11-24,49.5,42.4,37.4,-47.3,-51.6,-54.7,1,1,1,30.17,30.01,17,10,0,0.00
2013-11-25,44.1,39.8,37.6,41.0,-48.3,-54.6,98,6,1,30.04,29.65,16,8,0,2.02
2013-11-26,43.0,41.4,39.9,41.4,-37.0,-53.2,98,16,1,29.85,29.57,16,8,0,0.54
2013-11-27,47.1,38.7,28.0,-48.7,-53.9,-60.6,1,1,1,30.14,29.85,15,6,0,0.00
2013-11-28,54.0,36.2,25.0,-44.5,-55.5,-62.4,1,1,1,30.21,30.11,7,1,0,0.00
2013-11-29,62.2,41.7,25.2,-39.5,-52.1,-62.3,1,1,1,30.25,30.12,8,2,0,0.00
2013-11-30,71.1,46.9,28.0,-34.2,-48.9,-60.6,1,1,1,30.16,29.96,5,1,0,0.00
2013-12-1,74.5,56.5,35.1,-32.1,-43.0,-56.1,1,1,1,29.98,29.67,8,2,0,0.00
2013-12-2,72.9,61.6,57.4,11.4,-38.9,-42.4,13,1,1,29.69,29.41,6,3,0,0.00
2013-12-3,80.4,71.2,64.8,64.9,-27.9,-37.9,98,6,1,29.48,29.34,15,5,0,0.00
2013-12-4,81.0,74.6,70.0,70.5,-19.1,-34.8,98,10,1,29.56,29.46,11,6,0,0.00
2013-12-5,81.1,70.6,50.7,-28.2,-34.5,-46.5,1,1,1,29.68,29.55,12,6,0,0.13
2013-12-6,50.7,43.7,37.2,45.5,-36.8,-54.8,98,14,1,30.01,29.66,19,8,0,0.11
2013-12-7,37.2,33.9,32.5,-54.8,-56.9,-57.8,1,1,1,30.09,29.98,16,9,0,0.00
2013-12-8,43.0,37.9,33.1,41.6,-43.1,-57.4,98,12,1,29.97,29.75,8,4,0,1.52
2013-12-9,45.0,42.3,37.6,43.0,-45.0,-54.6,98,7,1,29.91,29.76,14,7,0,0.08
2013-12-10,46.4,39.2,34.5,-49.2,-53.6,-56.5,1,1,1,30.13,29.93,17,7,0,0.01
2013-12-11,48.2,41.5,31.8,-48.1,-52.2,-58.2,1,1,1,30.16,30.05,7,3,0,0.00
2013-12-12,53.6,41.7,32.2,-44.7,-52.1,-57.9,1,1,1,30.25,30.05,10,5,0,0.00
2013-12-13,61.0,47.8,31.6,-40.2,-48.3,-58.3,1,1,1,30.06,29.54,13,4,0,0.00
2013-12-14,70.3,58.4,46.2,62.4,-38.7,-49.3,98,4,1,29.89,29.52,22,7,0,1.02
2013-12-15,52.3,42.7,33.6,-45.5,-51.4,-57.1,1,1,1,30.04,29.89,14,5,0,0.00
2013-12-16,63.3,44.8,29.1,-38.9,-50.2,-59.9,1,1,1,30.08,29.93,6,1,0,0.00
2013-12-17,70.2,47.6,31.6,-34.7,-48.5,-58.3,1,1,1,30.06,29.93,7,1,0,0.00
2013-12-18,71.1,51.8,36.5,-34.2,-45.9,-55.3,1,1,1,30.07,29.90,8,1,0,0.00
2013-12-19,74.5,62.5,45.0,-32.1,-39.4,-50.0,1,1,1,29.90,29.67,11,4,0,0.00
2013-12-20,77.9,71.5,65.7,-30.1,-33.9,-37.4,1,1,1,29.69,29.58,12,7,0,0.00
2013-12-21,77.5,70.9,61.3,69.6,-30.2,-40.1,98,5,1,29.58,29.33,21,8,0,0.25
2013-12-22,66.9,59.0,43.0,61.6,-37.4,-51.2,98,5,1,29.96,29.53,17,3,0,0.07
2013-12-23,48.4,40.8,32.9,-47.9,-52.6,-57.5,1,1,1,30.22,29.96,14,8,0,0.00
2013-12-24,52.0,38.3,27.1,-45.7,-54.2,-61.1,1,1,1,30.28,30.07,12,3,0,0.00
2013-12-25,53.6,39.5,27.7,-44.7,-53.4,-60.8,1,1,1,30.12,30.02,7,2,0,0.00
2013-12-26,60.6,45.4,31.5,-40.5,-49.8,-58.4,1,1,1,30.13,29.98,10,3,0,0.00
2013-12-27,51.8,46.4,41.9,-45.8,-49.1,-51.9,1,1,1,30.16,30.01,8,4,0,0.00
2013-12-28,46.9,45.7,41.9,-48.8,-49.6,-51.9,1,1,1,30.00,29.71,7,3,0,0.27
2013-12-29,66.4,48.1,32.7,-37.0,-48.1,-57.6,1,1,1,29.83,29.72,7,1,0,0.01
2013-12-30,50.7,46.7,42.1,-46.5,-49.0,-51.8,1,1,1,30.08,29.82,9,3,0,0.00
2013-12-31,48.6,43.0,38.3,-47.8,-51.3,-54.2,1,1,1,30.16,29.99,9,4,0,0.00
2014-1-1,64.0,52.5,43.0,-38.4,-45.5,-51.2,1,1,1,29.99,29.72,6,2,0,0.00
2014-1-2,57.2,49.1,37.6,55.5,-45.4,-54.6,98,3,1,30.10,29.69,23,7,0,0.12